EW7604 Weather Reports


Display with metric or nautical units.
time (UTC)temp
F
wind
direction
speed
MPH
gust
MPH
rain 1hr
in
rain 24hr
in
rain mn
in
humidity
%
barometer
mb
20260507144552 52 5 2.0 4.0 0.00 0.00 0.00 85 1020.2
20260507143051 52 37 2.0 4.0 0.00 0.00 0.00 86 1020.1
20260507141555 52 24 2.0 4.0 0.00 0.00 0.00 87 1020.0
20260507140107 52 317 1.0 3.0 0.00 0.00 0.00 87 1019.9
20260507134549 52 310 0.0 2.0 0.00 0.00 0.00 88 1019.8
20260507133049 52 310 0.0 2.0 0.00 0.00 0.00 88 1019.7
20260507131600 52 310 1.0 2.0 0.00 0.00 0.00 87 1019.7
20260507130052 52 309 0.0 2.0 0.00 0.00 0.00 87 1019.9
20260507124602 52 308 0.0 3.0 0.00 0.00 0.00 87 1019.9
20260507123055 52 308 0.0 2.0 0.00 0.00 0.00 87 1019.9
20260507121547 52 308 2.0 3.0 0.00 0.00 0.00 87 1019.9
20260507120045 52 308 0.0 2.0 0.00 0.00 0.00 86 1020.1
20260507114545 52 308 1.0 3.0 0.00 0.00 0.00 86 1020.2
20260507113043 52 308 1.0 3.0 0.00 0.00 0.00 86 1020.3
20260507111544 52 303 0.0 2.0 0.00 0.00 0.00 87 1020.3
20260507110039 52 304 0.0 2.0 0.00 0.00 0.00 86 1020.3
20260507104540 52 305 0.0 3.0 0.00 0.00 0.00 86 1020.4
20260507103037 52 315 1.0 3.0 0.00 0.00 0.00 86 1020.5
20260507101544 52 319 1.0 5.0 0.00 0.00 0.00 86 1020.6
20260507100036 52 289 2.0 5.0 0.00 0.00 0.00 86 1020.6
20260507094533 52 321 1.0 5.0 0.00 0.00 0.00 85 1020.7
20260507093038 52 277 2.0 6.0 0.00 0.00 0.00 85 1020.8
20260507091530 52 242 1.0 5.0 0.00 0.00 0.00 85 1020.9
20260507090032 52 266 0.0 4.0 0.00 0.00 0.00 85 1021.0
20260507084528 53 317 2.0 5.0 0.00 0.00 0.00 85 1021.0
20260507083036 53 290 1.0 4.0 0.00 0.00 0.00 85 1020.9
20260507081529 53 250 1.0 5.0 0.00 0.00 0.00 85 1020.9
20260507080025 53 275 2.0 5.0 0.00 0.00 0.00 85 1020.9
20260507074528 53 266 1.0 8.0 0.00 0.00 0.00 85 1020.9
20260507073023 53 257 3.0 12.0 0.00 0.00 0.00 85 1020.9
20260507071522 53 239 2.0 10.0 0.00 0.00 0.00 85 1020.9
20260507070019 53 238 2.0 9.0 0.00 0.00 0.00 85 1020.8
20260507064519 53 285 3.0 9.0 0.00 0.00 0.00 85 1020.8
20260507063019 53 257 3.0 10.0 0.00 0.00 0.00 85 1020.9
20260507061519 52 280 3.0 9.0 0.00 0.00 0.00 85 1020.8
20260507060021 52 279 2.0 11.0 0.00 0.00 0.00 85 1020.9
20260507054516 52 236 4.0 12.0 0.00 0.00 0.00 85 1020.7
20260507053016 52 315 4.0 11.0 0.00 0.00 0.00 85 1020.7
20260507051512 52 224 3.0 9.0 0.00 0.00 0.00 84 1020.7
20260507050012 52 286 4.0 14.0 0.00 0.00 0.00 84 1020.7
20260507044511 52 269 5.0 15.0 0.00 0.00 0.00 84 1020.6
20260507043010 52 271 4.0 19.0 0.00 0.00 0.00 83 1020.5
20260507041509 53 296 6.0 14.0 0.00 0.00 0.00 83 1020.2
20260507040008 53 257 4.0 14.0 0.00 0.00 0.00 83 1020.1
20260507034506 53 256 5.0 12.0 0.00 0.00 0.00 83 1019.9
20260507033006 54 296 5.0 15.0 0.00 0.00 0.00 82 1019.8
20260507031505 54 261 4.0 17.0 0.00 0.00 0.00 82 1019.6
20260507030004 55 284 3.0 15.0 0.00 0.00 0.00 81 1019.6
20260507024503 56 257 5.0 11.0 0.00 0.00 0.00 80 1019.4
20260507023002 56 234 3.0 10.0 0.00 0.00 0.00 79 1019.4
20260507021507 57 278 5.0 13.0 0.00 0.00 0.00 77 1019.5
20260507020104 58 291 5.0 16.0 0.00 0.00 0.00 76 1019.5
20260507014609 59 274 4.0 13.0 0.00 0.00 0.00 75 1019.6
20260507013059 60 241 2.0 10.0 0.00 0.00 0.00 74 1019.5
20260507011605 61 273 4.0 14.0 0.00 0.00 0.00 73 1019.5
20260507010059 61 302 5.0 15.0 0.00 0.00 0.00 72 1019.6
20260507004559 62 270 4.0 15.0 0.00 0.00 0.00 72 1019.6
20260507003057 63 262 6.0 15.0 0.00 0.00 0.00 69 1019.6
20260507001615 64 250 4.0 12.0 0.00 0.00 0.00 69 1019.6
20260507000101 64 309 5.0 15.0 0.00 0.00 0.00 68 1019.6
20260506234559 64 283 4.0 16.0 0.00 0.00 0.00 69 1019.6
20260506233055 66 30 3.0 11.0 0.00 0.00 0.00 68 1019.5
20260506231554 66 311 4.0 13.0 0.00 0.00 0.00 67 1019.6
20260506230053 67 239 3.0 12.0 0.00 0.00 0.00 67 1019.6
20260506224552 68 256 3.0 9.0 0.00 0.00 0.00 69 1019.7
20260506223053 70 263 3.0 5.0 0.00 0.00 0.00 66 1019.8
20260506221549 69 242 0.0 7.0 0.00 0.00 0.00 67 1019.8
20260506220058 68 231 0.0 2.0 0.00 0.00 0.00 71 1019.9
20260506214548 69 257 1.0 6.0 0.00 0.00 0.00 66 1020.0
20260506213045 68 140 0.0 6.0 0.00 0.00 0.00 71 1020.0
20260506211542 67 276 1.0 6.0 0.00 0.00 0.00 67 1020.1
20260506210041 67 317 2.0 5.0 0.00 0.00 0.00 68 1020.2
20260506204539 67 276 2.0 4.0 0.00 0.00 0.00 72 1020.3
20260506203102 66 187 1.0 4.0 0.00 0.00 0.00 72 1020.4
20260506201536 66 336 2.0 9.0 0.00 0.00 0.00 71 1020.5
20260506200044 65 151 2.0 7.0 0.00 0.00 0.00 73 1020.6
20260506194532 65 200 2.0 4.0 0.00 0.00 0.00 74 1020.5
20260506193029 63 198 1.0 8.0 0.00 0.00 0.00 76 1020.5
20260506191528 63 111 3.0 10.0 0.00 0.00 0.00 77 1020.5
20260506190033 62 163 2.0 9.0 0.00 0.00 0.00 81 1020.7
20260506184522 60 138 2.0 6.0 0.00 0.00 0.00 81 1020.7
20260506183019 59 146 3.0 10.0 0.00 0.00 0.00 81 1020.7
20260506181517 59 181 2.0 6.0 0.00 0.00 0.00 84 1020.7
20260506180016 59 158 3.0 7.0 0.00 0.00 0.00 83 1020.7
20260506174516 59 199 1.0 6.0 0.00 0.00 0.00 83 1020.4
20260506173011 57 182 1.0 5.0 0.00 0.00 0.00 86 1020.6
20260506171515 56 35 1.0 5.0 0.00 0.00 0.00 88 1020.8
20260506170009 55 129 2.0 4.0 0.00 0.00 0.00 88 1020.4
20260506164510 55 256 2.0 7.0 0.00 0.00 0.00 89 1020.7
20260506163007 54 285 2.0 7.0 0.00 0.00 0.00 90 1020.5
20260506161507 53 327 1.0 5.0 0.00 0.00 0.00 91 1020.7
20260506160007 53 161 0.0 5.0 0.00 0.00 0.00 91 1020.3
20260506154524 53 152 1.0 3.0 0.00 0.00 0.00 91 1020.3
20260506153005 52 237 1.0 3.0 0.00 0.00 0.00 91 1020.5
20260506151504 52 253 0.0 4.0 0.00 0.00 0.00 91 1020.6
20260506150006 52 252 1.0 6.0 0.00 0.00 0.00 91 1020.6